Location: 22
(39.7117°N, 89.5929°W)
Time: 08:59:33
(UTC-05:00)

Transit 2A - Pass Details

Date: 12 August 2024
Orbit: 590 x 961 km, 66.7° (Epoch: 13 September)

Event Time Altitude Azimuth Distance (km) Brightness Sun altitude
Rises 11:12:46 0° 339° (NNW) 3,642 9.2 55.2°
Reaches altitude 10° 11:15:54 10° 353° (N) 2,703 8.7 55.7°
Maximum altitude 11:20:57 24° 45° (NE) 1,865 8.4 56.4°
Drops below altitude 10° 11:25:52 10° 98° (E) 2,637 9.4 57.1°
Sets 11:28:52 0° 112° (ESE) 3,534 9.9 57.5°
